| time (UTC) | temp C | wind direction | speed KPH | gust KPH | rain 1hr cm | rain 24hr cm | rain mn cm | humidity % | barometer mb |
| 20260510210640 | 15 | 158 | 8.0 | 8.0 | 0.00 | 0.05 | 0.05 | 61 | 1016.4 |
| 20260510204640 | 15 | 112 | 9.7 | 9.7 | 0.00 | 0.05 | 0.05 | 62 | 1016.3 |
| 20260510202641 | 15 | 248 | 3.2 | 3.2 | 0.00 | 0.05 | 0.05 | 68 | 1016.1 |
| 20260510201641 | 15 | 248 | 4.8 | 4.8 | 0.00 | 0.05 | 0.05 | 68 | 1016.1 |
| 20260510195640 | 15 | 270 | 16.1 | 16.1 | 0.00 | 0.05 | 0.05 | 69 | 1015.9 |
| 20260510194640 | 15 | 270 | 16.1 | 16.1 | 0.00 | 0.05 | 0.05 | 69 | 1015.8 |
| 20260510193640 | 15 | 270 | 14.5 | 14.5 | 0.00 | 0.05 | 0.05 | 69 | 1015.7 |
| 20260510192640 | 15 | 248 | 17.7 | 17.7 | 0.00 | 0.05 | 0.05 | 67 | 1015.7 |
| 20260510191641 | 15 | 22 | 3.2 | 3.2 | 0.00 | 0.05 | 0.05 | 69 | 1015.6 |
| 20260510190641 | 15 | 248 | 9.7 | 9.7 | 0.00 | 0.05 | 0.05 | 67 | 1015.8 |
| 20260510184640 | 16 | 270 | 1.6 | 1.6 | 0.00 | 0.05 | 0.05 | 65 | 1015.7 |
| 20260510182642 | 16 | 270 | 4.8 | 4.8 | 0.00 | 0.05 | 0.05 | 67 | 1015.3 |
| 20260510181641 | 16 | 292 | 12.9 | 12.9 | 0.00 | 0.05 | 0.05 | 69 | 1015.3 |
| 20260510180641 | 16 | 315 | 12.9 | 12.9 | 0.00 | 0.05 | 0.05 | 69 | 1015.0 |
| 20260510173640 | 15 | 248 | 11.3 | 11.3 | 0.00 | 0.05 | 0.05 | 73 | 1014.5 |
| 20260510172639 | 15 | 270 | 8.0 | 8.0 | 0.00 | 0.13 | 0.05 | 77 | 1014.9 |
| 20260510170640 | 15 | 270 | 19.3 | 19.3 | 0.00 | 0.13 | 0.05 | 77 | 1014.5 |
| 20260510164641 | 15 | 248 | 8.0 | 8.0 | 0.00 | 0.13 | 0.05 | 79 | 1014.6 |
| 20260510163640 | 14 | 270 | 16.1 | 16.1 | 0.00 | 0.13 | 0.05 | 83 | 1014.4 |
| 20260510162641 | 14 | 248 | 24.1 | 24.1 | 0.00 | 0.13 | 0.05 | 85 | 1014.7 |
| 20260510161641 | 14 | 248 | 17.7 | 17.7 | 0.00 | 0.13 | 0.05 | 84 | 1014.6 |
| 20260510160640 | 16 | 315 | 27.4 | 27.4 | 0.00 | 0.13 | 0.05 | 84 | 1014.3 |
| 20260510154639 | 21 | 292 | 6.4 | 6.4 | 0.00 | 0.15 | 0.05 | 49 | 1013.7 |
| 20260510152640 | 20 | 248 | 12.9 | 12.9 | 0.00 | 0.15 | 0.05 | 52 | 1013.5 |
| 20260510151641 | 19 | 248 | 9.7 | 9.7 | 0.00 | 0.15 | 0.05 | 56 | 1013.5 |
| 20260510150640 | 19 | 158 | 9.7 | 9.7 | 0.00 | 0.15 | 0.05 | 60 | 1013.7 |
| 20260510144641 | 17 | 202 | 8.0 | 8.0 | 0.05 | 0.15 | 0.05 | 67 | 1014.0 |
| 20260510143640 | 15 | 270 | 17.7 | 17.7 | 0.05 | 0.15 | 0.05 | 87 | 1014.0 |
| 20260510142640 | 15 | 270 | 17.7 | 17.7 | 0.05 | 0.15 | 0.05 | 87 | 1014.0 |
| 20260510141640 | 15 | 270 | 9.7 | 9.7 | 0.05 | 0.15 | 0.05 | 88 | 1014.4 |
| 20260510140641 | 16 | 68 | 8.0 | 8.0 | 0.05 | 0.15 | 0.05 | 88 | 1014.6 |
| 20260510134642 | 16 | 292 | 9.7 | 9.7 | 0.00 | 0.13 | 0.00 | 81 | 1014.3 |
| 20260510132641 | 17 | 315 | 12.9 | 12.9 | 0.00 | 0.13 | 0.00 | 80 | 1014.4 |
| 20260510131640 | 18 | 248 | 6.4 | 6.4 | 0.00 | 0.13 | 0.00 | 74 | 1014.4 |
| 20260510124641 | 18 | 248 | 14.5 | 14.5 | 0.00 | 0.13 | 0.00 | 59 | 1014.7 |
| 20260510123641 | 18 | 225 | 12.9 | 12.9 | 0.00 | 0.13 | 0.00 | 59 | 1014.8 |
| 20260510122640 | 17 | 135 | 9.7 | 9.7 | 0.00 | 0.13 | 0.00 | 63 | 1014.8 |
| 20260510121640 | 17 | 135 | 9.7 | 9.7 | 0.00 | 0.13 | 0.00 | 63 | 1014.8 |
| 20260510120641 | 17 | 270 | 11.3 | 11.3 | 0.00 | 0.13 | 0.00 | 68 | 1014.9 |
| 20260510114641 | 20 | 225 | 19.3 | 19.3 | 0.00 | 0.13 | 0.00 | 63 | 1014.9 |
| 20260510113642 | 20 | 248 | 12.9 | 12.9 | 0.00 | 0.13 | 0.00 | 53 | 1014.7 |
| 20260510112640 | 20 | 248 | 12.9 | 12.9 | 0.00 | 0.13 | 0.00 | 47 | 1014.6 |
| 20260510111639 | 20 | 225 | 8.0 | 8.0 | 0.00 | 0.13 | 0.00 | 46 | 1014.5 |
| 20260510110640 | 21 | 248 | 11.3 | 11.3 | 0.00 | 0.13 | 0.00 | 47 | 1014.5 |
| 20260510105641 | 21 | 338 | 3.2 | 3.2 | 0.00 | 0.13 | 0.00 | 45 | 1014.8 |
| 20260510104641 | 20 | 248 | 9.7 | 9.7 | 0.00 | 0.13 | 0.00 | 47 | 1014.7 |
| 20260510103640 | 20 | 180 | 8.0 | 8.0 | 0.00 | 0.13 | 0.00 | 49 | 1014.6 |
| 20260510101640 | 20 | 270 | 8.0 | 8.0 | 0.00 | 0.13 | 0.00 | 49 | 1014.6 |
| 20260510100641 | 19 | 180 | 8.0 | 8.0 | 0.00 | 0.13 | 0.00 | 49 | 1014.6 |
| 20260510095640 | 18 | 225 | 8.0 | 8.0 | 0.00 | 0.13 | 0.00 | 51 | 1014.8 |
| 20260510094640 | 18 | 180 | 11.3 | 11.3 | 0.00 | 0.13 | 0.00 | 51 | 1014.8 |
| 20260510091639 | 19 | 135 | 8.0 | 8.0 | 0.00 | 0.13 | 0.00 | 49 | 1014.9 |
| 20260510085641 | 17 | 292 | 11.3 | 11.3 | 0.00 | 0.13 | 0.00 | 53 | 1014.8 |
| 20260510084642 | 17 | 225 | 4.8 | 4.8 | 0.00 | 0.13 | 0.00 | 54 | 1014.7 |
| 20260510083641 | 16 | 158 | 8.0 | 8.0 | 0.00 | 0.13 | 0.00 | 57 | 1014.8 |
| 20260510082641 | 16 | 270 | 9.7 | 9.7 | 0.00 | 0.13 | 0.00 | 58 | 1014.8 |
| 20260510080640 | 16 | 180 | 11.3 | 11.3 | 0.00 | 0.13 | 0.00 | 60 | 1014.9 |
| 20260510075640 | 15 | 248 | 6.4 | 6.4 | 0.00 | 0.13 | 0.00 | 60 | 1015.0 |
| 20260510074640 | 15 | 248 | 8.0 | 8.0 | 0.00 | 0.13 | 0.00 | 61 | 1015.0 |
| 20260510073641 | 15 | 135 | 8.0 | 8.0 | 0.00 | 0.13 | 0.00 | 62 | 1014.9 |
| 20260510072640 | 15 | 225 | 6.4 | 6.4 | 0.00 | 0.13 | 0.00 | 62 | 1014.9 |
| 20260510071640 | 15 | 158 | 4.8 | 4.8 | 0.00 | 0.13 | 0.00 | 63 | 1014.9 |
| 20260510070640 | 15 | 225 | 3.2 | 3.2 | 0.00 | 0.13 | 0.00 | 63 | 1014.8 |
| 20260510065641 | 15 | 248 | 16.1 | 16.1 | 0.00 | 0.13 | 0.00 | 63 | 1014.7 |
| 20260510064640 | 15 | 248 | 12.9 | 12.9 | 0.00 | 0.13 | 0.00 | 66 | 1014.8 |
| 20260510063640 | 15 | 248 | 12.9 | 12.9 | 0.00 | 0.13 | 0.00 | 66 | 1014.5 |
| 20260510062640 | 15 | 158 | 6.4 | 6.4 | 0.00 | 0.13 | 0.00 | 60 | 1014.5 |
| 20260510060640 | 15 | 248 | 8.0 | 8.0 | 0.00 | 0.13 | 0.00 | 62 | 1014.5 |
| 20260510054640 | 13 | 202 | 8.0 | 8.0 | 0.00 | 0.13 | 0.00 | 64 | 1014.3 |
| 20260510052640 | 13 | 202 | 3.2 | 3.2 | 0.00 | 0.13 | 0.00 | 66 | 1014.0 |
| 20260510051640 | 13 | 202 | 4.8 | 4.8 | 0.00 | 0.13 | 0.00 | 66 | 1014.1 |
| 20260510045641 | 13 | 158 | 6.4 | 6.4 | 0.00 | 0.13 | 0.00 | 68 | 1014.0 |
| 20260510044641 | 13 | 158 | 4.8 | 4.8 | 0.00 | 0.13 | 0.00 | 67 | 1014.0 |
| 20260510040640 | 12 | 158 | 6.4 | 6.4 | 0.00 | 0.13 | 0.00 | 71 | 1014.4 |
| 20260510035641 | 12 | 135 | 3.2 | 3.2 | 0.00 | 0.13 | 0.00 | 71 | 1014.4 |
| 20260510033639 | 12 | 202 | 3.2 | 3.2 | 0.00 | 0.15 | 0.00 | 70 | 1014.5 |
| 20260510032640 | 13 | 225 | 3.2 | 3.2 | 0.00 | 0.15 | 0.00 | 68 | 1014.6 |
| 20260510031641 | 13 | 225 | 3.2 | 3.2 | 0.00 | 0.15 | 0.00 | 64 | 1014.6 |
| 20260510030640 | 12 | 180 | 3.2 | 3.2 | 0.00 | 0.15 | 0.00 | 70 | 1014.6 |
| 20260510025640 | 12 | 112 | 3.2 | 3.2 | 0.00 | 0.15 | 0.00 | 78 | 1014.4 |
| 20260510024641 | 12 | 180 | 0.0 | 0.0 | 0.00 | 0.15 | 0.00 | 77 | 1014.5 |
| 20260510023640 | 12 | 202 | 3.2 | 3.2 | 0.00 | 0.15 | 0.00 | 74 | 1014.6 |
| 20260510022640 | 12 | 270 | 4.8 | 4.8 | 0.00 | 0.15 | 0.00 | 82 | 1014.5 |
| 20260510021642 | 13 | 270 | 6.4 | 6.4 | 0.00 | 0.15 | 0.00 | 78 | 1014.6 |
| 20260510014641 | 12 | 202 | 3.2 | 3.2 | 0.00 | 0.15 | 0.00 | 72 | 1014.7 |
| 20260510013640 | 13 | 158 | 3.2 | 3.2 | 0.00 | 0.15 | 0.00 | 76 | 1014.8 |
| 20260510012640 | 13 | 180 | 3.2 | 3.2 | 0.00 | 0.15 | 0.00 | 76 | 1014.8 |
| 20260510011640 | 13 | 202 | 0.0 | 0.0 | 0.00 | 0.15 | 0.00 | 69 | 1014.9 |
| 20260510010640 | 13 | 225 | 4.8 | 4.8 | 0.00 | 0.15 | 0.00 | 68 | 1014.9 |
| 20260510005640 | 12 | 180 | 0.0 | 0.0 | 0.00 | 0.15 | 0.00 | 72 | 1015.1 |
| 20260510004641 | 12 | 202 | 3.2 | 3.2 | 0.00 | 0.15 | 0.00 | 84 | 1015.2 |
| 20260510003641 | 12 | 112 | 4.8 | 4.8 | 0.00 | 0.15 | 0.00 | 86 | 1015.2 |
| 20260510002640 | 12 | 112 | 3.2 | 3.2 | 0.00 | 0.15 | 0.00 | 87 | 1015.3 |
| 20260510001640 | 12 | 112 | 3.2 | 3.2 | 0.00 | 0.15 | 0.00 | 87 | 1015.4 |
| 20260509235642 | 12 | 112 | 4.8 | 4.8 | 0.15 | 0.15 | 0.15 | 88 | 1015.3 |
| 20260509234641 | 12 | 112 | 6.4 | 6.4 | 0.15 | 0.15 | 0.15 | 86 | 1015.4 |
| 20260509233642 | 13 | 112 | 8.0 | 8.0 | 0.15 | 0.15 | 0.15 | 84 | 1015.3 |
| 20260509232640 | 13 | 180 | 3.2 | 3.2 | 0.15 | 0.15 | 0.15 | 81 | 1015.5 |
| 20260509231640 | 13 | 292 | 4.8 | 4.8 | 0.15 | 0.15 | 0.15 | 80 | 1015.6 |
| 20260509230640 | 14 | 135 | 4.8 | 4.8 | 0.15 | 0.15 | 0.15 | 77 | 1015.5 |
| 20260509225642 | 15 | 248 | 0.0 | 0.0 | 0.00 | 0.00 | 0.00 | 67 | 1015.5 |
| 20260509224640 | 14 | 225 | 3.2 | 3.2 | 0.00 | 0.15 | 0.15 | 64 | 1015.5 |
| 20260509223640 | 13 | 248 | 4.8 | 4.8 | 0.00 | 0.15 | 0.15 | 76 | 1015.5 |
| 20260509222641 | 14 | 270 | 3.2 | 3.2 | 0.00 | 0.15 | 0.15 | 77 | 1015.5 |
| 20260509221640 | 14 | 292 | 4.8 | 4.8 | 0.00 | 0.15 | 0.15 | 78 | 1015.6 |
| 20260509220641 | 15 | 270 | 6.4 | 6.4 | 0.00 | 0.15 | 0.15 | 74 | 1015.5 |
| 20260509215640 | 16 | 315 | 3.2 | 3.2 | 0.00 | 0.00 | 0.00 | 70 | 1015.4 |
| 20260509214640 | 16 | 225 | 8.0 | 8.0 | 0.00 | 0.15 | 0.15 | 60 | 1015.3 |
| 20260509212640 | 16 | 248 | 3.2 | 3.2 | 0.00 | 0.15 | 0.15 | 57 | 1015.2 |
| 20260509211640 | 16 | 248 | 8.0 | 8.0 | 0.00 | 0.15 | 0.15 | 57 | 1015.2 |